N1BFO Weather Reports


Display with metric or nautical units.
time (UTC)temp
F
wind
direction
speed
MPH
gust
MPH
rain 1hr
in
rain 24hr
in
rain mn
in
humidity
%
barometer
mb
20260502164028 56 179 1.0 4.0 0.00 0.12 0.12 70 1010.6
20260502163526 56 121 1.0 4.0 0.00 0.12 0.12 71 1010.6
20260502163045 55 236 1.0 4.0 0.00 0.12 0.12 76 1010.8
20260502162528 54 181 1.0 4.0 0.00 0.12 0.12 73 1010.9
20260502162030 54 239 1.0 4.0 0.00 0.12 0.12 73 1011.1
20260502161539 54 165 1.0 3.0 0.00 0.12 0.12 76 1011.2
20260502161025 55 138 1.0 3.0 0.00 0.12 0.12 75 1011.2
20260502160531 55 150 1.0 4.0 0.00 0.12 0.12 75 1011.3
20260502152027 51 226 0.0 1.0 0.00 0.12 0.12 81 1011.2
20260502151538 51 0 0.0 1.0 0.00 0.12 0.12 80 1011.2
20260502151027 51 0 0.0 1.0 0.00 0.12 0.12 82 1011.2
20260502150525 50 0 0.0 1.0 0.00 0.12 0.12 82 1011.2
20260502130527 45 81 0.0 2.0 0.03 0.12 0.12 91 1012.0
20260502123527 45 329 1.0 3.0 0.07 0.12 0.12 92 1012.2
20260502123039 45 0 0.0 1.0 0.07 0.11 0.11 92 1012.2
20260502122528 45 32 0.0 2.0 0.06 0.10 0.10 91 1012.1
20260502122026 45 0 0.0 2.0 0.07 0.10 0.10 92 1012.2
20260502121546 45 345 0.0 2.0 0.07 0.09 0.09 92 1012.0
20260502121026 45 336 0.0 1.0 0.08 0.09 0.09 92 1012.1
20260502120527 45 0 0.0 1.0 0.08 0.09 0.09 92 1012.0
20260502115528 45 0 0.0 2.0 0.08 0.09 0.09 91 1011.9
20260502115028 45 0 0.0 2.0 0.07 0.08 0.08 91 1012.1
20260502114542 45 1 0.0 2.0 0.06 0.07 0.07 90 1012.2
20260502114026 45 0 0.0 0.0 0.05 0.06 0.06 90 1012.3
20260502113526 45 0 0.0 0.0 0.04 0.05 0.05 89 1012.4
20260502113038 45 0 0.0 0.0 0.03 0.04 0.04 89 1012.3
20260502112528 45 0 0.0 0.0 0.03 0.04 0.04 89 1012.3
20260502112025 45 0 0.0 0.0 0.02 0.03 0.03 88 1012.0
20260502111538 45 0 0.0 0.0 0.01 0.02 0.02 87 1011.8
20260502111027 45 0 0.0 2.0 0.00 0.01 0.01 86 1011.6
20260502110526 46 0 0.0 2.0 0.00 0.01 0.01 86 1011.4
20260502110036 45 0 0.0 2.0 0.00 0.01 0.01 86 1011.4
20260502105526 45 348 0.0 2.0 0.00 0.01 0.01 86 1010.9
20260502105027 45 0 0.0 2.0 0.00 0.01 0.01 85 1010.6
20260502104541 45 314 0.0 2.0 0.00 0.01 0.01 85 1010.9
20260502104026 45 0 0.0 1.0 0.01 0.01 0.01 87 1011.0
20260502103529 45 0 0.0 0.0 0.01 0.01 0.01 89 1011.1
20260502103042 44 0 0.0 0.0 0.01 0.01 0.01 89 1010.9
20260502102526 44 0 0.0 0.0 0.01 0.01 0.01 89 1011.0
20260502102026 44 0 0.0 0.0 0.01 0.01 0.01 89 1010.9
20260502101545 44 0 0.0 0.0 0.01 0.01 0.01 89 1010.7
20260502101027 44 0 0.0 1.0 0.01 0.01 0.01 89 1010.7
20260502100528 44 0 0.0 1.0 0.01 0.01 0.01 88 1010.7
20260502091027 44 0 0.0 0.0 0.00 0.00 0.00 85 1010.6
20260502090526 44 0 0.0 0.0 0.00 0.00 0.00 84 1010.6
20260502071025 45 0 0.0 1.0 0.00 0.00 0.00 76 1010.9
20260502070530 45 0 0.0 0.0 0.00 0.00 0.00 76 1011.1
20260502070041 45 0 0.0 0.0 0.00 0.00 0.00 77 1011.2
20260502065528 45 0 0.0 0.0 0.00 0.00 0.00 77 1011.1
20260502065029 44 0 0.0 0.0 0.00 0.00 0.00 79 1011.3
20260502064538 44 0 0.0 0.0 0.00 0.00 0.00 78 1011.3
20260502064025 44 0 0.0 0.0 0.00 0.00 0.00 79 1011.1
20260502063528 44 0 0.0 1.0 0.00 0.00 0.00 78 1011.0
20260502063041 44 200 0.0 1.0 0.00 0.00 0.00 79 1011.0
20260502062525 44 0 0.0 0.0 0.00 0.00 0.00 78 1010.6
20260502062027 44 0 0.0 0.0 0.00 0.00 0.00 78 1010.5
20260502061541 44 0 0.0 0.0 0.00 0.00 0.00 77 1010.4
20260502061028 44 0 0.0 0.0 0.00 0.00 0.00 77 1010.4
20260502060525 44 0 0.0 0.0 0.00 0.00 0.00 77 1010.5
20260502060039 44 0 0.0 0.0 0.00 0.00 0.00 77 1010.5
20260502055525 44 0 0.0 0.0 0.00 0.00 0.00 77 1010.7
20260502055028 44 0 0.0 0.0 0.00 0.00 0.00 77 1010.7
20260502054544 44 0 0.0 0.0 0.00 0.00 0.00 77 1010.8
20260502054028 43 0 0.0 0.0 0.00 0.00 0.00 77 1010.7
20260502053527 43 0 0.0 0.0 0.00 0.00 0.00 75 1010.8
20260502053051 44 0 0.0 0.0 0.00 0.00 0.00 75 1010.8
20260502052527 44 0 0.0 0.0 0.00 0.00 0.00 75 1010.9
20260502052027 44 0 0.0 0.0 0.00 0.00 0.00 74 1010.8
20260502051543 45 0 0.0 0.0 0.00 0.00 0.00 75 1010.9
20260502051028 45 0 0.0 0.0 0.00 0.00 0.00 74 1010.9
20260502050529 45 0 0.0 0.0 0.00 0.00 0.00 74 1010.9
20260502050039 45 0 0.0 0.0 0.00 0.00 0.00 73 1010.7
20260502045530 45 0 0.0 1.0 0.00 0.00 0.00 73 1010.7
20260502045031 46 0 0.0 1.0 0.00 0.00 0.00 73 1010.8
20260502044538 46 0 0.0 1.0 0.00 0.00 0.00 74 1010.9
20260502044031 46 279 0.0 0.0 0.00 0.00 0.00 72 1011.1
20260502043527 46 0 0.0 0.0 0.00 0.00 0.00 72 1011.1
20260502043036 46 0 0.0 0.0 0.00 0.00 0.00 72 1011.1
20260502042526 46 0 0.0 0.0 0.00 0.00 0.00 72 1011.1
20260502042028 46 0 0.0 0.0 0.00 0.00 0.00 71 1011.1
20260502041601 46 0 0.0 0.0 0.00 0.00 0.00 71 1011.1
20260502041026 46 0 0.0 0.0 0.00 0.00 0.00 71 1011.1
20260502040528 46 0 0.0 0.0 0.00 0.00 0.00 70 1011.1
20260502040112 46 0 0.0 0.0 0.00 0.00 0.00 69 1011.0
20260502035527 46 0 0.0 0.0 0.00 0.00 0.00 69 1011.0
20260502035027 46 0 0.0 0.0 0.00 0.00 0.00 68 1011.0
20260502034542 46 0 0.0 0.0 0.00 0.00 0.00 69 1011.0
20260502034025 46 0 0.0 0.0 0.00 0.00 0.00 69 1011.0
20260502033526 46 0 0.0 0.0 0.00 0.00 0.00 68 1011.0
20260502033053 46 0 0.0 0.0 0.00 0.00 0.00 68 1011.0
20260502032527 46 0 0.0 0.0 0.00 0.00 0.00 68 1011.0
20260502032025 46 0 0.0 0.0 0.00 0.00 0.00 68 1010.9
20260502031538 46 0 0.0 0.0 0.00 0.00 0.00 68 1010.9
20260502031028 45 0 0.0 0.0 0.00 0.00 0.00 67 1010.9
20260502030527 45 0 0.0 0.0 0.00 0.00 0.00 66 1010.7
20260502030037 45 0 0.0 0.0 0.00 0.00 0.00 65 1010.9
20260502025532 45 0 0.0 0.0 0.00 0.00 0.00 64 1010.9
20260502025025 45 0 0.0 0.0 0.00 0.00 0.00 65 1010.9
20260502024542 45 0 0.0 0.0 0.00 0.00 0.00 66 1010.9
20260502024028 45 0 0.0 0.0 0.00 0.00 0.00 66 1010.9
20260502023528 45 0 0.0 0.0 0.00 0.00 0.00 65 1010.8
20260502023039 44 0 0.0 0.0 0.00 0.00 0.00 67 1010.9
20260502022530 44 0 0.0 0.0 0.00 0.00 0.00 66 1010.8
20260502022027 45 0 0.0 0.0 0.00 0.00 0.00 67 1010.9
20260502021540 44 0 0.0 0.0 0.00 0.00 0.00 66 1010.9
20260502021027 44 0 0.0 0.0 0.00 0.00 0.00 66 1010.9
20260502020527 44 0 0.0 0.0 0.00 0.00 0.00 67 1010.9
20260502020038 44 0 0.0 0.0 0.00 0.00 0.00 68 1010.9
20260502015527 44 0 0.0 0.0 0.00 0.00 0.00 66 1010.9
20260502015028 45 0 0.0 0.0 0.00 0.00 0.00 64 1010.9
20260502014538 45 0 0.0 0.0 0.00 0.00 0.00 64 1010.9
20260502014028 45 0 0.0 0.0 0.00 0.00 0.00 62 1010.9
20260502013527 46 0 0.0 0.0 0.00 0.00 0.00 63 1010.9
20260502013044 46 0 0.0 0.0 0.00 0.00 0.00 64 1010.9
20260502012526 46 0 0.0 0.0 0.00 0.00 0.00 63 1010.8
20260502012026 46 0 0.0 0.0 0.00 0.00 0.00 63 1010.7
20260502011544 47 0 0.0 1.0 0.00 0.00 0.00 62 1010.7
20260502011026 47 0 0.0 1.0 0.00 0.00 0.00 62 1010.7
20260502010525 47 0 0.0 0.0 0.00 0.00 0.00 59 1010.8
20260502010040 47 0 0.0 0.0 0.00 0.00 0.00 60 1010.7
20260502005527 48 0 0.0 0.0 0.00 0.00 0.00 60 1010.7
20260502005027 48 0 0.0 0.0 0.00 0.00 0.00 59 1010.6
20260502004538 49 0 0.0 0.0 0.00 0.00 0.00 58 1010.5
20260502004027 49 0 0.0 0.0 0.00 0.00 0.00 58 1010.4
20260502003526 50 0 0.0 0.0 0.00 0.00 0.00 57 1010.4
20260502003038 50 0 0.0 0.0 0.00 0.00 0.00 56 1010.3
20260502002532 50 0 0.0 0.0 0.00 0.00 0.00 56 1010.3
20260502002026 51 0 0.0 1.0 0.00 0.00 0.00 55 1010.1
20260502001543 51 0 0.0 1.0 0.00 0.00 0.00 53 1010.0
20260502001025 51 278 0.0 1.0 0.00 0.00 0.00 54 1009.8
20260502000528 52 0 0.0 1.0 0.00 0.00 0.00 52 1009.8
20260502000046 52 0 0.0 1.0 0.00 0.00 0.00 52 1009.8
20260501235527 53 0 0.0 1.0 0.00 0.00 0.00 50 1009.8
20260501235028 53 0 0.0 1.0 0.00 0.00 0.00 49 1009.7
20260501234540 54 0 0.0 1.0 0.00 0.00 0.00 48 1009.6
20260501234025 54 0 0.0 1.0 0.00 0.00 0.00 46 1009.5
20260501233528 55 0 0.0 1.0 0.00 0.00 0.00 41 1009.4
20260501233038 55 0 0.0 1.0 0.00 0.00 0.00 40 1009.3
20260501232527 56 278 0.0 1.0 0.00 0.00 0.00 40 1009.2
20260501232030 56 0 0.0 2.0 0.00 0.00 0.00 38 1009.1
20260501231552 57 0 0.0 2.0 0.00 0.00 0.00 38 1009.0
20260501231027 57 349 0.0 2.0 0.00 0.00 0.00 40 1009.0
20260501230530 58 0 0.0 3.0 0.00 0.00 0.00 37 1008.9
20260501230042 58 344 1.0 3.0 0.00 0.00 0.00 36 1009.0
20260501225528 58 314 1.0 8.0 0.00 0.00 0.00 35 1009.0
20260501225028 58 43 1.0 8.0 0.00 0.00 0.00 35 1008.9
20260501224544 58 32 0.0 5.0 0.00 0.00 0.00 36 1008.9
20260501224026 58 355 2.0 5.0 0.00 0.00 0.00 35 1008.8
20260501223525 58 354 0.0 2.0 0.00 0.00 0.00 36 1008.8
20260501223108 59 0 0.0 5.0 0.00 0.00 0.00 35 1008.7
20260501222530 59 309 1.0 5.0 0.00 0.00 0.00 35 1008.7
20260501222026 59 0 0.0 3.0 0.00 0.00 0.00 36 1008.7
20260501221540 59 347 0.0 2.0 0.00 0.00 0.00 35 1008.6
20260501221027 59 0 0.0 5.0 0.00 0.00 0.00 35 1008.6
20260501220527 60 8 0.0 7.0 0.00 0.00 0.00 34 1008.6
20260501220040 60 307 1.0 7.0 0.00 0.00 0.00 33 1008.6
20260501215525 60 266 1.0 6.0 0.00 0.00 0.00 34 1008.5
20260501215030 60 4 1.0 6.0 0.00 0.00 0.00 34 1008.6
20260501214536 60 1 1.0 4.0 0.00 0.00 0.00 33 1008.6
20260501214029 60 78 1.0 9.0 0.00 0.00 0.00 34 1008.4
20260501213528 60 63 2.0 9.0 0.00 0.00 0.00 33 1008.5
20260501213044 60 359 3.0 9.0 0.00 0.00 0.00 32 1008.4
20260501212528 60 46 1.0 5.0 0.00 0.00 0.00 34 1008.5
20260501212027 60 39 2.0 4.0 0.00 0.00 0.00 33 1008.5
20260501211545 60 213 0.0 3.0 0.00 0.00 0.00 36 1008.3
20260501211028 60 317 0.0 4.0 0.00 0.00 0.00 36 1008.4
20260501210527 61 86 1.0 4.0 0.00 0.00 0.00 36 1008.2
20260501210037 61 107 1.0 4.0 0.00 0.00 0.00 34 1008.2
20260501205528 61 85 1.0 9.0 0.00 0.00 0.00 32 1008.1
20260501205027 61 251 2.0 9.0 0.00 0.00 0.00 35 1008.0
20260501204538 61 105 1.0 7.0 0.00 0.00 0.00 35 1008.1
20260501204027 61 336 1.0 7.0 0.00 0.00 0.00 35 1008.0
20260501203527 61 316 0.0 13.0 0.00 0.00 0.00 34 1008.0
20260501203037 61 331 3.0 13.0 0.00 0.00 0.00 33 1008.0
20260501202525 62 347 2.0 10.0 0.00 0.00 0.00 33 1007.9
20260501202029 62 61 1.0 11.0 0.00 0.00 0.00 33 1008.0
20260501201539 62 186 3.0 11.0 0.00 0.00 0.00 36 1008.0
20260501201027 62 313 1.0 6.0 0.00 0.00 0.00 36 1007.8
20260501200528 61 356 2.0 10.0 0.00 0.00 0.00 34 1008.0
20260501200043 62 276 3.0 10.0 0.00 0.00 0.00 32 1007.9
20260501195526 63 339 2.0 6.0 0.00 0.00 0.00 34 1007.9
20260501195028 62 263 2.0 6.0 0.00 0.00 0.00 33 1007.9
20260501194537 62 105 2.0 6.0 0.00 0.00 0.00 34 1008.0
20260501194028 62 187 2.0 9.0 0.00 0.00 0.00 33 1008.0
20260501193524 62 351 3.0 9.0 0.00 0.00 0.00 34 1008.0
20260501193040 63 52 3.0 8.0 0.00 0.00 0.00 33 1008.1
20260501192526 62 343 3.0 14.0 0.00 0.00 0.00 36 1008.2
20260501192027 62 162 1.0 14.0 0.00 0.00 0.00 35 1008.3
20260501191537 62 4 2.0 6.0 0.00 0.00 0.00 36 1008.2
20260501191025 62 193 2.0 8.0 0.00 0.00 0.00 33 1008.3
20260501190527 62 70 2.0 8.0 0.00 0.00 0.00 36 1008.3
20260501190043 61 206 2.0 9.0 0.00 0.00 0.00 33 1008.4
20260501185526 61 285 3.0 9.0 0.00 0.00 0.00 38 1008.6
20260501185026 61 1 1.0 4.0 0.00 0.00 0.00 38 1008.6
20260501184535 61 23 1.0 9.0 0.00 0.00 0.00 36 1008.6
20260501184025 61 65 3.0 9.0 0.00 0.00 0.00 35 1008.6
20260501183528 60 278 2.0 6.0 0.00 0.00 0.00 37 1008.7
20260501183037 61 116 2.0 9.0 0.00 0.00 0.00 35 1008.6
20260501182524 62 49 1.0 9.0 0.00 0.00 0.00 36 1008.8
20260501182027 62 267 3.0 11.0 0.00 0.00 0.00 36 1008.8
20260501181539 63 47 4.0 11.0 0.00 0.00 0.00 35 1008.8
20260501181027 63 312 3.0 8.0 0.00 0.00 0.00 39 1008.8
20260501180526 62 153 2.0 7.0 0.00 0.00 0.00 37 1008.7